Location: Cucq
(50.4773°N, 1.6202°E)
Time: 22:09:33
(UTC+00:00)

Cosmos 1980 - Pass Details

Date: 07 August 2020
Orbit: 838 x 848 km, 71.0° (Epoch: 22 September)

Event Time Altitude Azimuth Distance (km) Brightness Sun altitude
Rises 00:37:53 0° 331° (NNW) 3,414 7.6 -22.6°
Reaches altitude 10° 00:40:22 10° 334° (NNW) 2,477 6.8 -22.6°
Maximum altitude 00:46:02 68° 57° (ENE) 910 3.9 -22.4°
Enters shadow 00:49:11 27° 135° (SE) 1,572 4.8 -22.3°
